Back to catalog

NIMBUS 2 DEB

AliveSSO
NORAD 40648·DEBRIS·🇺🇸 United States

Launched May 15, 1966 from Vandenberg Space Force Base

Loading…

Next Passes (next 24 hours)

TLE

FreshSource: Space-Track

Epoch: Sep 14, 2026, 08:45 UTC

1 40648U 66040BM  26257.36522761  .00001923  00000-0  30690-2 0  9997
2 40648 100.2032  90.4821 0039041 272.3931  87.2732 13.50269591555083

Track NIMBUS 2 DEB in real time with AllMySat

Download on the App Store